| time (UTC) | temp F | wind direction | speed MPH | gust MPH | rain 1hr in | rain 24hr in | rain mn in | humidity % | barometer mb |
| 20260906223106 | 87 | 278 | 2.0 | 8.0 | 0.00 | 0.00 | 0.00 | 31 | 1016.7 |
| 20260906221602 | 87 | 126 | 4.0 | 11.0 | 0.00 | 0.00 | 0.00 | 32 | 1017.1 |
| 20260906220103 | 88 | 146 | 0.0 | 5.0 | 0.00 | 0.00 | 0.00 | 31 | 1017.0 |
| 20260906214559 | 87 | 120 | 3.0 | 5.0 | 0.00 | 0.00 | 0.00 | 32 | 1017.4 |
| 20260906213102 | 88 | 326 | 2.0 | 7.0 | 0.00 | 0.00 | 0.00 | 31 | 1017.6 |
| 20260906211601 | 86 | 183 | 1.0 | 7.0 | 0.00 | 0.00 | 0.00 | 32 | 1017.8 |
| 20260906210111 | 87 | 0 | 2.0 | 8.0 | 0.00 | 0.00 | 0.00 | 31 | 1018.2 |
| 20260906204554 | 87 | 265 | 1.0 | 8.0 | 0.00 | 0.00 | 0.00 | 31 | 1018.4 |
| 20260906203054 | 88 | 203 | 1.0 | 4.0 | 0.00 | 0.00 | 0.00 | 31 | 1018.6 |
| 20260906201636 | 87 | 311 | 1.0 | 7.0 | 0.00 | 0.00 | 0.00 | 32 | 1018.6 |
| 20260906200059 | 87 | 276 | 1.0 | 3.0 | 0.00 | 0.00 | 0.00 | 31 | 1018.8 |
| 20260906194606 | 86 | 230 | 1.0 | 3.0 | 0.00 | 0.00 | 0.00 | 33 | 1018.8 |
| 20260906193056 | 86 | 269 | 1.0 | 3.0 | 0.00 | 0.00 | 0.00 | 32 | 1019.0 |
| 20260906191606 | 84 | 199 | 1.0 | 4.0 | 0.00 | 0.00 | 0.00 | 34 | 1019.2 |
| 20260906190058 | 83 | 256 | 1.0 | 3.0 | 0.00 | 0.00 | 0.00 | 36 | 1019.3 |
| 20260906184559 | 84 | 212 | 0.0 | 3.0 | 0.00 | 0.00 | 0.00 | 35 | 1019.6 |
| 20260906183057 | 83 | 248 | 1.0 | 5.0 | 0.00 | 0.00 | 0.00 | 37 | 1019.9 |
| 20260906181604 | 81 | 259 | 1.0 | 4.0 | 0.00 | 0.00 | 0.00 | 39 | 1020.3 |
| 20260906180055 | 81 | 230 | 1.0 | 3.0 | 0.00 | 0.00 | 0.00 | 40 | 1020.4 |
| 20260906174554 | 80 | 0 | 1.0 | 4.0 | 0.00 | 0.00 | 0.00 | 41 | 1020.7 |
| 20260906173056 | 80 | 144 | 0.0 | 3.0 | 0.00 | 0.00 | 0.00 | 44 | 1021.1 |
| 20260906171555 | 78 | 250 | 1.0 | 3.0 | 0.00 | 0.00 | 0.00 | 47 | 1021.3 |
| 20260906170055 | 76 | 193 | 1.0 | 4.0 | 0.00 | 0.00 | 0.00 | 49 | 1021.6 |
| 20260906164556 | 77 | 203 | 0.0 | 4.0 | 0.00 | 0.00 | 0.00 | 49 | 1021.8 |
| 20260906163101 | 76 | 0 | 1.0 | 3.0 | 0.00 | 0.00 | 0.00 | 50 | 1021.7 |
| 20260906161607 | 75 | 0 | 1.0 | 4.0 | 0.00 | 0.00 | 0.00 | 53 | 1021.7 |
| 20260906160058 | 74 | 198 | 1.0 | 4.0 | 0.00 | 0.00 | 0.00 | 55 | 1021.7 |
| 20260906154552 | 73 | 165 | 0.0 | 3.0 | 0.00 | 0.00 | 0.00 | 54 | 1021.6 |
| 20260906153059 | 72 | 0 | 0.0 | 2.0 | 0.00 | 0.00 | 0.00 | 55 | 1021.4 |
| 20260906151557 | 72 | 124 | 0.0 | 4.0 | 0.00 | 0.00 | 0.00 | 54 | 1021.6 |
| 20260906150055 | 72 | 120 | 0.0 | 2.0 | 0.00 | 0.00 | 0.00 | 52 | 1021.6 |
| 20260906144559 | 70 | 0 | 0.0 | 0.0 | 0.00 | 0.00 | 0.00 | 57 | 1021.6 |
| 20260906143059 | 68 | 0 | 1.0 | 3.0 | 0.00 | 0.00 | 0.00 | 60 | 1021.7 |
| 20260906141558 | 67 | 0 | 0.0 | 2.0 | 0.00 | 0.00 | 0.00 | 63 | 1021.5 |
| 20260906140104 | 66 | 120 | 0.0 | 2.0 | 0.00 | 0.00 | 0.00 | 64 | 1021.7 |
| 20260906134610 | 67 | 0 | 0.0 | 0.0 | 0.00 | 0.00 | 0.00 | 63 | 1021.7 |
| 20260906133101 | 63 | 0 | 0.0 | 1.0 | 0.00 | 0.00 | 0.00 | 65 | 1021.6 |
| 20260906131556 | 0 | 0.0 | 0.0 | 0.00 | 0.00 | 0.00 | 1021.3 | ||
| 20260906130108 | 0 | 0.0 | 0.0 | 0.00 | 0.00 | 0.00 | 1021.3 | ||
| 20260906124605 | 0 | 0.0 | 0.0 | 0.00 | 0.00 | 0.00 | 1021.1 | ||
| 20260906123056 | 0 | 0.0 | 0.0 | 0.00 | 0.00 | 0.00 | 1021.0 | ||
| 20260906121605 | 0 | 0.0 | 0.0 | 0.00 | 0.00 | 0.00 | 1021.2 | ||
| 20260906120101 | 0 | 0.0 | 0.0 | 0.00 | 0.00 | 0.00 | 1021.1 | ||
| 20260906114625 | 0 | 0.0 | 0.0 | 0.00 | 0.00 | 0.00 | 1021.2 | ||
| 20260906113114 | 0 | 0.0 | 0.0 | 0.00 | 0.00 | 0.00 | 1021.3 | ||
| 20260906111558 | 63 | 1.0 | 4.0 | 0.00 | 0.00 | 0.00 | 100 | 1020.9 | |
| 20260906110054 | 64 | 121 | 4.0 | 8.0 | 0.00 | 0.00 | 0.00 | 66 | 1020.8 |
| 20260906104556 | 65 | 117 | 3.0 | 5.0 | 0.00 | 0.00 | 0.00 | 57 | 1020.8 |
| 20260906103102 | 65 | 117 | 1.0 | 7.0 | 0.00 | 0.00 | 0.00 | 54 | 1020.7 |
| 20260906101605 | 65 | 130 | 2.0 | 4.0 | 0.00 | 0.00 | 0.00 | 54 | 1020.5 |
| 20260906100056 | 67 | 130 | 0.0 | 2.0 | 0.00 | 0.00 | 0.00 | 52 | 1020.6 |
| 20260906094603 | 67 | 130 | 0.0 | 1.0 | 0.00 | 0.00 | 0.00 | 50 | 1020.7 |
| 20260906093057 | 68 | 130 | 2.0 | 6.0 | 0.00 | 0.00 | 0.00 | 49 | 1020.7 |
| 20260906091551 | 69 | 128 | 4.0 | 6.0 | 0.00 | 0.00 | 0.00 | 48 | 1020.6 |
| 20260906090049 | 70 | 116 | 3.0 | 5.0 | 0.00 | 0.00 | 0.00 | 46 | 1020.4 |
| 20260906084557 | 70 | 93 | 4.0 | 7.0 | 0.00 | 0.00 | 0.00 | 45 | 1020.3 |
| 20260906083055 | 71 | 105 | 2.0 | 5.0 | 0.00 | 0.00 | 0.00 | 44 | 1020.3 |
| 20260906081555 | 70 | 84 | 0.0 | 3.0 | 0.00 | 0.00 | 0.00 | 46 | 1020.2 |
| 20260906080048 | 70 | 0 | 0.0 | 2.0 | 0.00 | 0.00 | 0.00 | 46 | 1020.1 |
| 20260906074556 | 70 | 103 | 2.0 | 8.0 | 0.00 | 0.00 | 0.00 | 46 | 1020.0 |
| 20260906073057 | 70 | 122 | 3.0 | 6.0 | 0.00 | 0.00 | 0.00 | 46 | 1020.0 |
| 20260906071554 | 70 | 106 | 1.0 | 6.0 | 0.00 | 0.00 | 0.00 | 47 | 1020.1 |
| 20260906070046 | 71 | 103 | 1.0 | 5.0 | 0.00 | 0.00 | 0.00 | 44 | 1020.1 |
| 20260906064555 | 71 | 0 | 0.0 | 1.0 | 0.00 | 0.00 | 0.00 | 44 | 1020.1 |
| 20260906063057 | 72 | 80 | 0.0 | 3.0 | 0.00 | 0.00 | 0.00 | 43 | 1020.3 |
| 20260906061556 | 72 | 94 | 1.0 | 3.0 | 0.00 | 0.00 | 0.00 | 44 | 1020.4 |
| 20260906060133 | 71 | 110 | 1.0 | 3.0 | 0.00 | 0.00 | 0.00 | 45 | 1020.5 |
| 20260906054548 | 71 | 47 | 1.0 | 4.0 | 0.00 | 0.00 | 0.00 | 48 | 1020.5 |
| 20260906053055 | 70 | 47 | 1.0 | 4.0 | 0.00 | 0.00 | 0.00 | 51 | 1020.8 |
| 20260906051554 | 72 | 80 | 0.0 | 2.0 | 0.00 | 0.00 | 0.00 | 47 | 1020.9 |
| 20260906050109 | 74 | 334 | 0.0 | 2.0 | 0.00 | 0.00 | 0.00 | 40 | 1021.1 |
| 20260906044556 | 75 | 339 | 3.0 | 11.0 | 0.00 | 0.00 | 0.00 | 38 | 1021.3 |
| 20260906043057 | 77 | 325 | 1.0 | 8.0 | 0.00 | 0.00 | 0.00 | 34 | 1021.3 |
| 20260906041553 | 77 | 0 | 0.0 | 9.0 | 0.00 | 0.00 | 0.00 | 33 | 1020.7 |
| 20260906040050 | 77 | 124 | 4.0 | 8.0 | 0.00 | 0.00 | 0.00 | 32 | 1020.1 |
| 20260906034556 | 76 | 89 | 1.0 | 4.0 | 0.00 | 0.00 | 0.00 | 32 | 1019.7 |
| 20260906033054 | 76 | 0 | 0.0 | 1.0 | 0.00 | 0.00 | 0.00 | 31 | 1019.5 |
| 20260906031609 | 76 | 68 | 0.0 | 1.0 | 0.00 | 0.00 | 0.00 | 31 | 1019.6 |
| 20260906030056 | 77 | 58 | 0.0 | 1.0 | 0.00 | 0.00 | 0.00 | 31 | 1019.4 |
| 20260906024556 | 78 | 86 | 0.0 | 1.0 | 0.00 | 0.00 | 0.00 | 30 | 1019.2 |
| 20260906023105 | 78 | 89 | 0.0 | 1.0 | 0.00 | 0.00 | 0.00 | 29 | 1018.9 |
| 20260906021558 | 79 | 89 | 1.0 | 4.0 | 0.00 | 0.00 | 0.00 | 28 | 1018.9 |
| 20260906020059 | 80 | 0 | 0.0 | 2.0 | 0.00 | 0.00 | 0.00 | 27 | 1018.8 |
| 20260906014553 | 81 | 101 | 1.0 | 5.0 | 0.00 | 0.00 | 0.00 | 27 | 1018.8 |
| 20260906013055 | 81 | 120 | 6.0 | 8.0 | 0.00 | 0.00 | 0.00 | 26 | 1018.8 |
| 20260906011603 | 82 | 98 | 5.0 | 12.0 | 0.00 | 0.00 | 0.00 | 26 | 1018.6 |
| 20260906010054 | 83 | 135 | 3.0 | 6.0 | 0.00 | 0.00 | 0.00 | 25 | 1018.6 |
| 20260906004556 | 84 | 133 | 2.0 | 5.0 | 0.00 | 0.00 | 0.00 | 24 | 1018.6 |
| 20260906003058 | 85 | 0 | 0.0 | 2.0 | 0.00 | 0.00 | 0.00 | 23 | 1018.7 |
| 20260906001554 | 85 | 195 | 1.0 | 3.0 | 0.00 | 0.00 | 0.00 | 22 | 1018.6 |
| 20260906000105 | 86 | 176 | 2.0 | 4.0 | 0.00 | 0.00 | 0.00 | 22 | 1018.7 |
| 20260905234559 | 87 | 120 | 0.0 | 3.0 | 0.00 | 0.00 | 0.00 | 21 | 1018.5 |
| 20260905233102 | 88 | 120 | 0.0 | 2.0 | 0.00 | 0.00 | 0.00 | 20 | 1018.5 |
| 20260905231603 | 88 | 120 | 0.0 | 3.0 | 0.00 | 0.00 | 0.00 | 21 | 1018.4 |
| 20260905230100 | 88 | 314 | 0.0 | 3.0 | 0.00 | 0.00 | 0.00 | 21 | 1018.4 |
| 20260905224552 | 88 | 304 | 1.0 | 3.0 | 0.00 | 0.00 | 0.00 | 21 | 1018.2 |